Time,TemperatureF,DewpointF,PressureIn,WindDirection,WindDirectionDegrees,WindSpeedMPH,WindSpeedGustMPH,Humidity,HourlyPrecipIn,Conditions,Clouds,dailyrainin,SoftwareType,DateUTC
2013-09-17 00:01:00,58.6,55.9,29.35,North,0,0.0,2.0,91,0.00,,,0.00,meteohub,2013-09-17 07:01:00,
2013-09-17 00:06:00,58.6,56.3,29.35,North,0,0.0,0.0,92,0.00,,,0.00,meteohub,2013-09-17 07:06:00,
2013-09-17 00:11:00,58.6,56.3,29.35,SW,225,0.0,1.0,92,0.00,,,0.00,meteohub,2013-09-17 07:11:00,
2013-09-17 00:16:00,58.6,56.3,29.35,SW,225,1.0,1.0,92,0.00,,,0.00,meteohub,2013-09-17 07:16:00,
2013-09-17 00:21:00,58.8,56.8,29.35,SW,225,0.0,2.0,93,0.00,,,0.00,meteohub,2013-09-17 07:21:00,
2013-09-17 00:26:00,58.8,56.5,29.35,SW,225,0.0,2.0,92,0.00,,,0.00,meteohub,2013-09-17 07:26:00,
2013-09-17 00:31:00,59.0,57.0,29.35,SW,225,1.0,2.0,93,0.00,,,0.00,meteohub,2013-09-17 07:31:00,
2013-09-17 00:36:00,59.0,56.7,29.34,SE,135,2.0,2.0,92,0.00,,,0.00,meteohub,2013-09-17 07:36:00,
2013-09-17 00:41:00,59.0,56.7,29.35,East,90,0.0,2.0,92,0.00,,,0.00,meteohub,2013-09-17 07:41:00,
2013-09-17 00:46:00,59.0,56.7,29.34,SW,225,2.0,2.0,92,0.00,,,0.00,meteohub,2013-09-17 07:46:00,
2013-09-17 00:51:00,59.0,56.7,29.34,SW,225,0.0,2.0,92,0.00,,,0.00,meteohub,2013-09-17 07:51:00,
2013-09-17 00:56:00,59.2,56.8,29.34,SE,135,0.0,2.0,92,0.00,,,0.00,meteohub,2013-09-17 07:56:00,
2013-09-17 01:01:00,59.4,57.0,29.34,North,0,1.0,2.0,92,0.00,,,0.00,meteohub,2013-09-17 08:01:00,
2013-09-17 01:06:00,59.7,57.0,29.34,North,0,0.0,2.0,91,0.00,,,0.00,meteohub,2013-09-17 08:06:00,
2013-09-17 01:12:00,59.7,57.0,29.33,East,90,2.0,2.0,91,0.00,,,0.00,meteohub,2013-09-17 08:12:00,
2013-09-17 01:17:00,59.9,57.0,29.33,NW,315,1.0,2.0,90,0.00,,,0.00,meteohub,2013-09-17 08:17:00,
2013-09-17 01:22:00,60.1,57.2,29.33,WNW,293,3.0,3.0,90,0.00,,,0.00,meteohub,2013-09-17 08:22:00,
2013-09-17 01:27:00,60.3,56.7,29.33,SW,225,4.0,4.0,88,0.00,,,0.00,meteohub,2013-09-17 08:27:00,
2013-09-17 01:32:00,60.8,56.8,29.33,South,180,2.0,5.0,87,0.00,,,0.00,meteohub,2013-09-17 08:32:00,
2013-09-17 01:37:00,61.0,57.0,29.33,SE,135,2.0,5.0,87,0.00,,,0.00,meteohub,2013-09-17 08:37:00,
2013-09-17 01:42:00,61.2,57.0,29.33,NW,315,1.0,5.0,86,0.00,,,0.00,meteohub,2013-09-17 08:42:00,
2013-09-17 01:47:00,61.2,57.0,29.33,West,270,2.0,7.0,86,0.00,,,0.00,meteohub,2013-09-17 08:47:00,
2013-09-17 01:52:00,61.2,57.0,29.33,SW,225,3.0,7.0,86,0.00,,,0.00,meteohub,2013-09-17 08:52:00,
2013-09-17 01:57:00,61.3,57.2,29.33,South,180,2.0,7.0,86,0.00,,,0.00,meteohub,2013-09-17 08:57:00,
2013-09-17 02:02:00,61.2,57.0,29.33,NE,45,2.0,5.0,86,0.00,,,0.00,meteohub,2013-09-17 09:02:00,
2013-09-17 02:07:00,61.2,57.0,29.33,NE,45,2.0,5.0,86,0.00,,,0.00,meteohub,2013-09-17 09:07:00,
2013-09-17 02:12:00,61.2,57.0,29.33,NW,315,2.0,4.0,86,0.00,,,0.00,meteohub,2013-09-17 09:12:00,
2013-09-17 02:17:00,61.2,56.7,29.33,North,0,4.0,4.0,85,0.00,,,0.00,meteohub,2013-09-17 09:17:00,
2013-09-17 02:22:00,61.2,56.7,29.33,West,270,2.0,4.0,85,0.00,,,0.00,meteohub,2013-09-17 09:22:00,
2013-09-17 02:27:00,61.2,56.7,29.33,SE,135,1.0,4.0,85,0.00,,,0.00,meteohub,2013-09-17 09:27:00,
2013-09-17 02:32:00,61.2,56.7,29.33,NE,45,2.0,4.0,85,0.00,,,0.00,meteohub,2013-09-17 09:32:00,
2013-09-17 02:37:00,61.2,56.7,29.33,NW,315,3.0,4.0,85,0.00,,,0.00,meteohub,2013-09-17 09:37:00,
2013-09-17 02:42:00,61.2,56.7,29.32,NE,45,4.0,4.0,85,0.00,,,0.00,meteohub,2013-09-17 09:42:00,
2013-09-17 02:47:00,61.2,56.7,29.33,NE,45,2.0,4.0,85,0.00,,,0.00,meteohub,2013-09-17 09:47:00,
2013-09-17 02:52:00,61.2,56.7,29.33,NE,45,4.0,8.0,85,0.00,,,0.00,meteohub,2013-09-17 09:52:00,
2013-09-17 02:57:00,61.2,56.7,29.33,South,180,2.0,8.0,85,0.00,,,0.00,meteohub,2013-09-17 09:57:00,
2013-09-17 03:02:00,61.0,56.5,29.33,South,180,4.0,8.0,85,0.00,,,0.00,meteohub,2013-09-17 10:02:00,
2013-09-17 03:07:00,61.0,56.5,29.33,NE,45,2.0,4.0,85,0.00,,,0.00,meteohub,2013-09-17 10:07:00,
2013-09-17 03:12:00,61.0,56.5,29.33,South,180,2.0,4.0,85,0.00,,,0.00,meteohub,2013-09-17 10:12:00,
2013-09-17 03:17:00,61.0,56.5,29.33,South,180,2.0,7.0,85,0.00,,,0.00,meteohub,2013-09-17 10:17:00,
2013-09-17 03:22:00,60.8,56.3,29.33,NE,45,2.0,7.0,85,0.00,,,0.00,meteohub,2013-09-17 10:22:00,
2013-09-17 03:27:00,60.8,56.3,29.33,North,0,2.0,7.0,85,0.00,,,0.00,meteohub,2013-09-17 10:27:00,
2013-09-17 03:32:00,60.8,56.3,29.33,NE,45,2.0,3.0,85,0.00,,,0.00,meteohub,2013-09-17 10:32:00,
2013-09-17 03:37:00,60.8,56.7,29.33,North,0,4.0,6.0,86,0.00,,,0.00,meteohub,2013-09-17 10:37:00,
2013-09-17 03:42:00,60.6,56.5,29.33,North,0,2.0,6.0,86,0.00,,,0.00,meteohub,2013-09-17 10:42:00,
2013-09-17 03:47:00,60.4,56.5,29.33,NE,45,4.0,6.0,87,0.00,,,0.00,meteohub,2013-09-17 10:47:00,
2013-09-17 03:52:00,60.3,56.3,29.33,NE,45,2.0,8.0,87,0.00,,,0.00,meteohub,2013-09-17 10:52:00,
2013-09-17 03:57:00,60.1,56.5,29.33,North,0,2.0,8.0,88,0.00,,,0.00,meteohub,2013-09-17 10:57:00,
2013-09-17 04:02:00,59.9,56.3,29.33,North,0,2.0,8.0,88,0.00,,,0.00,meteohub,2013-09-17 11:02:00,
2013-09-17 04:07:00,59.9,56.3,29.33,SW,225,1.0,3.0,88,0.00,,,0.00,meteohub,2013-09-17 11:07:00,
2013-09-17 04:12:00,59.7,56.1,29.32,NNW,338,2.0,3.0,88,0.00,,,0.00,meteohub,2013-09-17 11:12:00,
2013-09-17 04:17:00,59.7,56.1,29.32,East,90,1.0,4.0,88,0.00,,,0.00,meteohub,2013-09-17 11:17:00,
2013-09-17 04:22:00,59.5,55.9,29.32,SW,225,2.0,7.0,88,0.00,,,0.00,meteohub,2013-09-17 11:22:00,
2013-09-17 04:27:00,59.4,55.8,29.32,North,0,1.0,7.0,88,0.00,,,0.00,meteohub,2013-09-17 11:27:00,
2013-09-17 04:32:00,59.4,56.1,29.32,NE,45,2.0,5.0,89,0.00,,,0.00,meteohub,2013-09-17 11:32:00,
2013-09-17 04:37:00,59.2,55.9,29.32,NE,45,3.0,4.0,89,0.00,,,0.00,meteohub,2013-09-17 11:37:00,
2013-09-17 04:42:00,59.4,56.1,29.32,SE,135,2.0,4.0,89,0.00,,,0.00,meteohub,2013-09-17 11:42:00,
2013-09-17 04:47:00,59.4,56.1,29.32,NE,45,2.0,4.0,89,0.00,,,0.00,meteohub,2013-09-17 11:47:00,
2013-09-17 04:52:00,59.5,56.3,29.32,NE,45,3.0,4.0,89,0.00,,,0.00,meteohub,2013-09-17 11:52:00,
2013-09-17 04:57:00,59.5,55.9,29.32,South,180,1.0,4.0,88,0.00,,,0.00,meteohub,2013-09-17 11:57:00,
2013-09-17 05:02:00,59.5,55.9,29.32,NE,45,0.0,4.0,88,0.00,,,0.00,meteohub,2013-09-17 12:02:00,
2013-09-17 05:07:00,59.5,55.9,29.32,East,90,0.0,3.0,88,0.00,,,0.00,meteohub,2013-09-17 12:07:00,
2013-09-17 05:12:00,59.4,55.8,29.32,East,90,0.0,3.0,88,0.00,,,0.00,meteohub,2013-09-17 12:12:00,
2013-09-17 05:17:00,59.2,55.9,29.32,East,90,0.0,1.0,89,0.00,,,0.00,meteohub,2013-09-17 12:17:00,
2013-09-17 05:22:00,59.4,56.1,29.32,SW,225,2.0,2.0,89,0.00,,,0.00,meteohub,2013-09-17 12:22:00,
2013-09-17 05:27:00,59.4,55.8,29.32,SE,135,1.0,2.0,88,0.00,,,0.00,meteohub,2013-09-17 12:27:00,
2013-09-17 05:32:00,59.5,55.6,29.32,SSE,158,2.0,2.0,87,0.00,,,0.00,meteohub,2013-09-17 12:32:00,
2013-09-17 05:37:00,59.5,55.6,29.32,SW,225,2.0,3.0,87,0.00,,,0.00,meteohub,2013-09-17 12:37:00,
2013-09-17 05:42:00,59.5,55.6,29.31,North,0,3.0,3.0,87,0.00,,,0.00,meteohub,2013-09-17 12:42:00,
2013-09-17 05:47:00,59.5,55.6,29.31,South,180,2.0,4.0,87,0.00,,,0.00,meteohub,2013-09-17 12:47:00,
2013-09-17 05:52:00,59.5,55.6,29.32,East,90,3.0,4.0,87,0.00,,,0.00,meteohub,2013-09-17 12:52:00,
2013-09-17 05:57:00,59.5,55.4,29.31,North,0,2.0,4.0,86,0.00,,,0.00,meteohub,2013-09-17 12:57:00,
2013-09-17 06:02:00,59.5,55.6,29.32,North,0,2.0,4.0,87,0.00,,,0.00,meteohub,2013-09-17 13:02:00,
2013-09-17 06:07:00,59.5,55.6,29.32,East,90,2.0,4.0,87,0.00,,,0.00,meteohub,2013-09-17 13:07:00,
2013-09-17 06:12:00,59.5,55.6,29.31,SE,135,0.0,4.0,87,0.00,,,0.00,meteohub,2013-09-17 13:12:00,
2013-09-17 06:17:00,59.4,55.4,29.31,East,90,3.0,4.0,87,0.00,,,0.00,meteohub,2013-09-17 13:17:00,
2013-09-17 06:22:00,59.4,55.4,29.31,NW,315,4.0,4.0,87,0.00,,,0.00,meteohub,2013-09-17 13:22:00,
2013-09-17 06:27:00,59.4,55.4,29.31,North,0,2.0,4.0,87,0.00,,,0.00,meteohub,2013-09-17 13:27:00,
2013-09-17 06:32:00,59.2,55.6,29.31,SW,225,2.0,5.0,88,0.00,,,0.00,meteohub,2013-09-17 13:32:00,
2013-09-17 06:37:00,59.2,55.6,29.31,South,180,2.0,5.0,88,0.00,,,0.00,meteohub,2013-09-17 13:37:00,
2013-09-17 06:42:00,59.0,55.4,29.31,North,0,2.0,3.0,88,0.00,,,0.00,meteohub,2013-09-17 13:42:00,
2013-09-17 06:47:00,58.8,55.2,29.31,NE,45,4.0,4.0,88,0.00,,,0.00,meteohub,2013-09-17 13:47:00,
2013-09-17 06:52:00,58.8,55.2,29.31,NE,45,4.0,4.0,88,0.00,,,0.00,meteohub,2013-09-17 13:52:00,
2013-09-17 06:57:00,59.0,55.4,29.32,North,0,2.0,4.0,88,0.00,,,0.00,meteohub,2013-09-17 13:57:00,
2013-09-17 07:02:00,59.0,55.4,29.31,SE,135,1.0,4.0,88,0.00,,,0.00,meteohub,2013-09-17 14:02:00,
2013-09-17 07:07:00,58.8,55.0,29.32,North,0,2.0,4.0,87,0.00,,,0.00,meteohub,2013-09-17 14:07:00,
2013-09-17 07:12:00,58.8,55.0,29.32,SW,225,0.0,4.0,87,0.00,,,0.00,meteohub,2013-09-17 14:12:00,
2013-09-17 07:17:00,58.8,55.0,29.32,East,90,2.0,4.0,87,0.00,,,0.00,meteohub,2013-09-17 14:17:00,
2013-09-17 07:22:00,59.0,54.9,29.33,South,180,2.0,4.0,86,0.00,,,0.00,meteohub,2013-09-17 14:22:00,
2013-09-17 07:27:00,59.0,54.9,29.32,East,90,2.0,2.0,86,0.00,,,0.00,meteohub,2013-09-17 14:27:00,
2013-09-17 07:32:00,59.2,55.0,29.32,SW,225,2.0,2.0,86,0.00,,,0.00,meteohub,2013-09-17 14:32:00,
2013-09-17 07:37:00,59.2,54.7,29.33,SW,225,2.0,2.0,85,0.00,,,0.00,meteohub,2013-09-17 14:37:00,
2013-09-17 07:42:00,59.2,54.7,29.33,NW,315,2.0,3.0,85,0.00,,,0.00,meteohub,2013-09-17 14:42:00,
2013-09-17 07:47:00,59.4,54.5,29.33,NE,45,2.0,4.0,84,0.00,,,0.00,meteohub,2013-09-17 14:47:00,
2013-09-17 07:52:00,59.4,54.5,29.33,SW,225,0.0,4.0,84,0.00,,,0.00,meteohub,2013-09-17 14:52:00,
2013-09-17 07:57:00,59.4,54.5,29.33,East,90,4.0,4.0,84,0.00,,,0.00,meteohub,2013-09-17 14:57:00,
2013-09-17 08:02:00,59.5,54.3,29.33,NE,45,3.0,4.0,83,0.00,,,0.00,meteohub,2013-09-17 15:02:00,
2013-09-17 08:07:00,59.7,54.5,29.33,East,90,2.0,4.0,83,0.00,,,0.00,meteohub,2013-09-17 15:07:00,
2013-09-17 08:12:00,59.7,54.1,29.33,West,270,1.0,4.0,82,0.00,,,0.00,meteohub,2013-09-17 15:12:00,
2013-09-17 08:17:00,59.9,54.3,29.33,North,0,2.0,4.0,82,0.00,,,0.00,meteohub,2013-09-17 15:17:00,
2013-09-17 08:22:00,59.9,54.1,29.33,NW,315,0.0,2.0,81,0.00,,,0.00,meteohub,2013-09-17 15:22:00,
2013-09-17 08:27:00,60.1,54.3,29.33,East,90,0.0,3.0,81,0.00,,,0.00,meteohub,2013-09-17 15:27:00,
2013-09-17 08:32:00,60.3,54.3,29.33,NE,45,1.0,3.0,81,0.00,,,0.00,meteohub,2013-09-17 15:32:00,
2013-09-17 08:37:00,60.3,54.3,29.33,East,90,1.0,2.0,81,0.00,,,0.00,meteohub,2013-09-17 15:37:00,
2013-09-17 08:42:00,60.3,54.3,29.34,East,90,1.0,2.0,81,0.00,,,0.00,meteohub,2013-09-17 15:42:00,
2013-09-17 08:47:00,60.3,54.1,29.34,SW,225,1.0,2.0,80,0.00,,,0.00,meteohub,2013-09-17 15:47:00,
2013-09-17 08:52:00,60.3,54.3,29.34,SW,225,0.0,2.0,81,0.00,,,0.00,meteohub,2013-09-17 15:52:00,
2013-09-17 08:57:00,60.3,54.3,29.34,SW,225,1.0,2.0,81,0.00,,,0.00,meteohub,2013-09-17 15:57:00,
2013-09-17 09:02:00,60.1,54.5,29.34,SW,225,0.0,2.0,82,0.00,,,0.00,meteohub,2013-09-17 16:02:00,
2013-09-17 09:07:00,60.1,54.5,29.34,SW,225,0.0,1.0,82,0.00,,,0.00,meteohub,2013-09-17 16:07:00,
2013-09-17 09:12:00,59.9,54.7,29.34,SW,225,2.0,2.0,83,0.00,,,0.00,meteohub,2013-09-17 16:12:00,
2013-09-17 09:17:00,59.7,55.6,29.34,SW,225,2.0,2.0,86,0.00,,,0.00,meteohub,2013-09-17 16:17:00,
2013-09-17 09:22:00,59.5,55.6,29.34,SW,225,2.0,2.0,87,0.00,,,0.00,meteohub,2013-09-17 16:22:00,
2013-09-17 09:27:00,59.4,55.8,29.34,SW,225,2.0,2.0,88,0.00,,,0.00,meteohub,2013-09-17 16:27:00,
2013-09-17 09:32:00,59.5,55.9,29.34,South,180,0.0,2.0,88,0.00,,,0.00,meteohub,2013-09-17 16:32:00,
2013-09-17 09:37:00,60.1,56.8,29.34,SW,225,2.0,2.0,89,0.00,,,0.00,meteohub,2013-09-17 16:37:00,
2013-09-17 09:42:00,60.4,56.8,29.34,South,180,2.0,3.0,88,0.00,,,0.00,meteohub,2013-09-17 16:42:00,
2013-09-17 09:47:00,60.4,56.8,29.34,SW,225,4.0,4.0,88,0.00,,,0.00,meteohub,2013-09-17 16:47:00,
2013-09-17 09:52:00,60.6,57.0,29.35,SW,225,1.0,4.0,88,0.00,,,0.00,meteohub,2013-09-17 16:52:00,
2013-09-17 09:57:00,61.2,57.6,29.35,South,180,4.0,4.0,88,0.00,,,0.00,meteohub,2013-09-17 16:57:00,
2013-09-17 10:02:00,61.3,57.4,29.35,South,180,2.0,4.0,87,0.00,,,0.00,meteohub,2013-09-17 17:02:00,
2013-09-17 10:07:00,61.5,57.6,29.35,South,180,2.0,4.0,87,0.00,,,0.00,meteohub,2013-09-17 17:07:00,
2013-09-17 10:12:00,62.2,58.3,29.35,West,270,0.0,4.0,87,0.00,,,0.00,meteohub,2013-09-17 17:12:00,
2013-09-17 10:17:00,62.6,57.7,29.35,SW,225,2.0,2.0,84,0.00,,,0.00,meteohub,2013-09-17 17:17:00,
2013-09-17 10:22:00,62.4,57.6,29.35,SW,225,1.0,2.0,84,0.00,,,0.00,meteohub,2013-09-17 17:22:00,
2013-09-17 10:27:00,62.6,57.7,29.34,East,90,2.0,3.0,84,0.00,,,0.00,meteohub,2013-09-17 17:27:00,
2013-09-17 10:32:00,62.4,56.8,29.35,NE,45,2.0,3.0,82,0.00,,,0.00,meteohub,2013-09-17 17:32:00,
2013-09-17 10:37:00,62.2,56.3,29.34,East,90,2.0,2.0,81,0.00,,,0.00,meteohub,2013-09-17 17:37:00,
2013-09-17 10:43:00,62.1,56.5,29.34,NE,45,0.0,3.0,82,0.00,,,0.00,meteohub,2013-09-17 17:43:00,
2013-09-17 10:48:00,62.6,57.4,29.34,South,180,1.0,3.0,83,0.00,,,0.00,meteohub,2013-09-17 17:48:00,
2013-09-17 10:53:00,62.8,57.2,29.34,South,180,2.0,3.0,82,0.00,,,0.00,meteohub,2013-09-17 17:53:00,
2013-09-17 10:58:00,62.6,57.4,29.34,SW,225,3.0,3.0,83,0.00,,,0.00,meteohub,2013-09-17 17:58:00,
2013-09-17 11:03:00,62.4,57.2,29.34,SW,225,4.0,4.0,83,0.00,,,0.00,meteohub,2013-09-17 18:03:00,
2013-09-17 11:09:00,62.1,56.8,29.34,SW,225,4.0,4.0,83,0.00,,,0.00,meteohub,2013-09-17 18:09:00,
2013-09-17 11:14:00,62.2,57.7,29.34,SW,225,3.0,4.0,85,0.00,,,0.00,meteohub,2013-09-17 18:14:00,
2013-09-17 11:19:00,62.4,57.2,29.34,SW,225,4.0,4.0,83,0.00,,,0.00,meteohub,2013-09-17 18:19:00,
2013-09-17 11:24:00,62.8,57.6,29.34,SW,225,3.0,4.0,83,0.00,,,0.00,meteohub,2013-09-17 18:24:00,
2013-09-17 11:29:00,63.5,57.6,29.34,SSW,203,5.0,6.0,81,0.00,,,0.00,meteohub,2013-09-17 18:29:00,
2013-09-17 11:34:00,64.4,58.8,29.34,South,180,3.0,6.0,82,0.00,,,0.00,meteohub,2013-09-17 18:34:00,
2013-09-17 11:39:00,64.9,57.9,29.34,South,180,4.0,6.0,78,0.00,,,0.00,meteohub,2013-09-17 18:39:00,
2013-09-17 11:44:00,64.8,57.0,29.34,SW,225,6.0,6.0,76,0.00,,,0.00,meteohub,2013-09-17 18:44:00,
2013-09-17 11:49:00,64.9,56.8,29.34,South,180,4.0,8.0,75,0.00,,,0.00,meteohub,2013-09-17 18:49:00,
2013-09-17 11:54:00,65.3,56.8,29.34,South,180,8.0,8.0,74,0.00,,,0.00,meteohub,2013-09-17 18:54:00,
2013-09-17 11:59:00,66.7,58.1,29.34,SW,225,3.0,8.0,74,0.00,,,0.00,meteohub,2013-09-17 18:59:00,
2013-09-17 12:04:00,68.9,57.9,29.34,SW,225,6.0,8.0,68,0.00,,,0.00,meteohub,2013-09-17 19:04:00,
2013-09-17 12:09:00,69.4,57.6,29.34,SW,225,4.0,8.0,66,0.00,,,0.00,meteohub,2013-09-17 19:09:00,
2013-09-17 12:14:00,69.6,56.5,29.35,SW,225,7.0,8.0,63,0.00,,,0.00,meteohub,2013-09-17 19:14:00,
2013-09-17 12:19:00,68.4,55.8,29.35,SW,225,5.0,9.0,64,0.00,,,0.00,meteohub,2013-09-17 19:19:00,
2013-09-17 12:24:00,69.3,57.4,29.34,SW,225,7.0,9.0,66,0.00,,,0.00,meteohub,2013-09-17 19:24:00,
2013-09-17 12:29:00,70.5,56.8,29.34,SW,225,6.0,11.0,62,0.00,,,0.00,meteohub,2013-09-17 19:29:00,
2013-09-17 12:34:00,71.4,56.3,29.35,South,180,4.0,11.0,59,0.00,,,0.00,meteohub,2013-09-17 19:34:00,
2013-09-17 12:39:00,72.1,56.5,29.34,South,180,6.0,11.0,58,0.00,,,0.00,meteohub,2013-09-17 19:39:00,
2013-09-17 12:45:00,72.1,55.0,29.35,SW,225,10.0,11.0,55,0.00,,,0.00,meteohub,2013-09-17 19:45:00,
2013-09-17 12:50:00,70.5,55.0,29.35,SW,225,4.0,11.0,58,0.00,,,0.00,meteohub,2013-09-17 19:50:00,
2013-09-17 12:55:00,69.3,54.3,29.35,SW,225,4.0,14.0,59,0.00,,,0.00,meteohub,2013-09-17 19:55:00,
2013-09-17 13:00:00,68.2,53.2,29.35,SW,225,6.0,14.0,59,0.00,,,0.00,meteohub,2013-09-17 20:00:00,
2013-09-17 13:05:00,67.8,53.4,29.35,SW,225,4.0,14.0,60,0.00,,,0.00,meteohub,2013-09-17 20:05:00,
2013-09-17 13:10:00,66.9,55.2,29.36,SW,225,2.0,8.0,66,0.00,,,0.00,meteohub,2013-09-17 20:10:00,
2013-09-17 13:15:00,66.4,55.9,29.35,SE,135,1.0,8.0,69,0.00,,,0.00,meteohub,2013-09-17 20:15:00,
2013-09-17 13:20:00,67.8,57.7,29.35,NW,315,1.0,5.0,70,0.00,,,0.00,meteohub,2013-09-17 20:20:00,
2013-09-17 13:25:00,70.3,57.6,29.35,West,270,2.0,4.0,64,0.00,,,0.00,meteohub,2013-09-17 20:25:00,
2013-09-17 13:30:00,71.6,55.6,29.35,South,180,2.0,4.0,57,0.00,,,0.00,meteohub,2013-09-17 20:30:00,
2013-09-17 13:35:00,72.0,56.8,29.35,South,180,2.0,5.0,59,0.00,,,0.00,meteohub,2013-09-17 20:35:00,
2013-09-17 13:40:00,73.8,56.7,29.35,SW,225,2.0,5.0,55,0.00,,,0.00,meteohub,2013-09-17 20:40:00,
2013-09-17 13:45:00,72.9,53.6,29.35,North,0,3.0,5.0,51,0.00,,,0.00,meteohub,2013-09-17 20:45:00,
2013-09-17 13:50:00,71.4,54.5,29.35,SW,225,2.0,4.0,55,0.00,,,0.00,meteohub,2013-09-17 20:50:00,
2013-09-17 13:55:00,70.2,54.7,29.35,SW,225,1.0,4.0,58,0.00,,,0.00,meteohub,2013-09-17 20:55:00,
2013-09-17 14:00:00,69.4,54.0,29.35,NE,45,2.0,3.0,58,0.00,,,0.00,meteohub,2013-09-17 21:00:00,
2013-09-17 14:05:00,68.7,55.2,29.35,NW,315,2.0,2.0,62,0.00,,,0.00,meteohub,2013-09-17 21:05:00,
2013-09-17 14:10:00,68.2,54.1,29.35,SW,225,3.0,3.0,61,0.00,,,0.00,meteohub,2013-09-17 21:10:00,
2013-09-17 14:15:00,69.8,57.0,29.35,East,90,2.0,3.0,64,0.00,,,0.00,meteohub,2013-09-17 21:15:00,
2013-09-17 14:20:00,73.8,54.0,29.35,South,180,8.0,8.0,50,0.00,,,0.00,meteohub,2013-09-17 21:20:00,
2013-09-17 14:25:00,73.6,51.4,29.35,South,180,11.0,15.0,46,0.00,,,0.00,meteohub,2013-09-17 21:25:00,
2013-09-17 14:30:00,71.4,51.3,29.35,SW,225,8.0,18.0,49,0.00,,,0.00,meteohub,2013-09-17 21:30:00,
2013-09-17 14:35:00,72.7,52.3,29.35,South,180,9.0,18.0,49,0.00,,,0.00,meteohub,2013-09-17 21:35:00,
2013-09-17 14:40:00,72.7,51.8,29.36,West,270,12.0,18.0,48,0.00,,,0.00,meteohub,2013-09-17 21:40:00,
2013-09-17 14:45:00,71.1,52.5,29.35,South,180,10.0,15.0,52,0.00,,,0.00,meteohub,2013-09-17 21:45:00,
2013-09-17 14:50:00,70.2,51.8,29.35,WSW,248,12.0,17.0,52,0.00,,,0.00,meteohub,2013-09-17 21:50:00,
2013-09-17 14:56:00,70.3,52.3,29.36,SW,225,9.0,17.0,53,0.00,,,0.00,meteohub,2013-09-17 21:56:00,
2013-09-17 15:01:00,69.4,52.5,29.36,South,180,6.0,17.0,55,0.00,,,0.00,meteohub,2013-09-17 22:01:00,
2013-09-17 15:06:00,69.1,52.2,29.36,South,180,8.0,15.0,55,0.00,,,0.00,meteohub,2013-09-17 22:06:00,
2013-09-17 15:11:00,70.2,53.2,29.36,SW,225,9.0,15.0,55,0.00,,,0.00,meteohub,2013-09-17 22:11:00,
2013-09-17 15:16:00,69.6,52.7,29.36,SW,225,8.0,11.0,55,0.00,,,0.00,meteohub,2013-09-17 22:16:00,
2013-09-17 15:21:00,68.4,52.5,29.36,SW,225,9.0,11.0,57,0.00,,,0.00,meteohub,2013-09-17 22:21:00,
2013-09-17 15:26:00,67.5,51.6,29.36,SW,225,8.0,11.0,57,0.00,,,0.00,meteohub,2013-09-17 22:26:00,
2013-09-17 15:31:00,67.3,52.5,29.36,South,180,4.0,11.0,59,0.00,,,0.00,meteohub,2013-09-17 22:31:00,
2013-09-17 15:36:00,66.9,52.2,29.36,SW,225,3.0,11.0,59,0.00,,,0.00,meteohub,2013-09-17 22:36:00,
2013-09-17 15:41:00,67.6,52.9,29.36,SW,225,1.0,11.0,59,0.00,,,0.00,meteohub,2013-09-17 22:41:00,
2013-09-17 15:46:00,68.9,53.1,29.36,South,180,4.0,8.0,57,0.00,,,0.00,meteohub,2013-09-17 22:46:00,
2013-09-17 15:51:00,71.8,54.3,29.36,SW,225,4.0,8.0,54,0.00,,,0.00,meteohub,2013-09-17 22:51:00,
2013-09-17 15:56:00,73.8,52.9,29.36,SW,225,4.0,8.0,48,0.00,,,0.00,meteohub,2013-09-17 22:56:00,
2013-09-17 16:01:00,73.6,51.4,29.36,SW,225,8.0,9.0,46,0.00,,,0.00,meteohub,2013-09-17 23:01:00,
2013-09-17 16:06:00,71.8,52.2,29.36,SW,225,5.0,9.0,50,0.00,,,0.00,meteohub,2013-09-17 23:06:00,
2013-09-17 16:12:00,70.2,51.8,29.36,SW,225,8.0,8.0,52,0.00,,,0.00,meteohub,2013-09-17 23:12:00,
2013-09-17 16:17:00,68.9,53.1,29.36,South,180,4.0,8.0,57,0.00,,,0.00,meteohub,2013-09-17 23:17:00,
2013-09-17 16:22:00,68.5,51.3,29.37,South,180,9.0,9.0,54,0.00,,,0.00,meteohub,2013-09-17 23:22:00,
2013-09-17 16:27:00,68.4,50.5,29.36,SW,225,6.0,9.0,53,0.00,,,0.00,meteohub,2013-09-17 23:27:00,
2013-09-17 16:32:00,68.5,51.3,29.36,South,180,4.0,9.0,54,0.00,,,0.00,meteohub,2013-09-17 23:32:00,
2013-09-17 16:37:00,69.1,51.3,29.36,SW,225,6.0,9.0,53,0.00,,,0.00,meteohub,2013-09-17 23:37:00,
2013-09-17 16:42:00,69.8,50.9,29.36,SW,225,9.0,9.0,51,0.00,,,0.00,meteohub,2013-09-17 23:42:00,
2013-09-17 16:47:00,69.6,51.8,29.37,SW,225,6.0,9.0,53,0.00,,,0.00,meteohub,2013-09-17 23:47:00,
2013-09-17 16:52:00,69.3,50.9,29.36,SW,225,9.0,9.0,52,0.00,,,0.00,meteohub,2013-09-17 23:52:00,
2013-09-17 16:57:00,71.4,50.2,29.37,South,180,11.0,11.0,47,0.00,,,0.00,meteohub,2013-09-17 23:57:00,
2013-09-17 17:02:00,72.0,50.0,29.37,South,180,11.0,12.0,46,0.00,,,0.00,meteohub,2013-09-18 00:02:00,
2013-09-17 17:07:00,72.9,51.4,29.37,West,270,3.0,15.0,47,0.00,,,0.00,meteohub,2013-09-18 00:07:00,
2013-09-17 17:12:00,73.4,50.7,29.37,SW,225,7.0,15.0,45,0.00,,,0.00,meteohub,2013-09-18 00:12:00,
2013-09-17 17:17:00,73.6,51.4,29.37,South,180,8.0,15.0,46,0.00,,,0.00,meteohub,2013-09-18 00:17:00,
2013-09-17 17:22:00,72.9,51.4,29.37,SW,225,6.0,11.0,47,0.00,,,0.00,meteohub,2013-09-18 00:22:00,
2013-09-17 17:27:00,72.9,52.5,29.38,SW,225,8.0,11.0,49,0.00,,,0.00,meteohub,2013-09-18 00:27:00,
2013-09-17 17:32:00,72.3,52.7,29.38,South,180,8.0,11.0,50,0.00,,,0.00,meteohub,2013-09-18 00:32:00,
2013-09-17 17:37:00,72.0,52.9,29.38,SW,225,6.0,12.0,51,0.00,,,0.00,meteohub,2013-09-18 00:37:00,
2013-09-17 17:42:00,71.4,53.4,29.38,SW,225,5.0,12.0,53,0.00,,,0.00,meteohub,2013-09-18 00:42:00,
2013-09-17 17:47:00,68.5,52.7,29.38,South,180,6.0,12.0,57,0.00,,,0.00,meteohub,2013-09-18 00:47:00,
2013-09-17 17:52:00,66.0,53.1,29.38,South,180,5.0,10.0,63,0.00,,,0.00,meteohub,2013-09-18 00:52:00,
2013-09-17 17:57:00,64.9,53.2,29.39,South,180,3.0,13.0,66,0.00,,,0.00,meteohub,2013-09-18 00:57:00,
2013-09-17 18:02:00,64.2,53.1,29.39,SW,225,4.0,13.0,67,0.00,,,0.00,meteohub,2013-09-18 01:02:00,
2013-09-17 18:07:00,63.5,52.7,29.39,West,270,5.0,13.0,68,0.00,,,0.00,meteohub,2013-09-18 01:07:00,
2013-09-17 18:12:00,63.1,52.9,29.39,SW,225,7.0,11.0,69,0.00,,,0.00,meteohub,2013-09-18 01:12:00,
2013-09-17 18:17:00,62.6,53.1,29.39,South,180,6.0,11.0,71,0.00,,,0.00,meteohub,2013-09-18 01:17:00,
2013-09-17 18:23:00,62.2,53.1,29.40,South,180,4.0,15.0,72,0.00,,,0.00,meteohub,2013-09-18 01:23:00,
2013-09-17 18:28:00,62.1,53.2,29.40,South,180,5.0,15.0,73,0.00,,,0.00,meteohub,2013-09-18 01:28:00,
2013-09-17 18:33:00,61.7,53.2,29.40,SW,225,5.0,12.0,74,0.00,,,0.00,meteohub,2013-09-18 01:33:00,
2013-09-17 18:38:00,61.3,52.7,29.40,South,180,7.0,12.0,73,0.00,,,0.00,meteohub,2013-09-18 01:38:00,
2013-09-17 18:43:00,61.7,52.2,29.41,South,180,6.0,12.0,71,0.00,,,0.00,meteohub,2013-09-18 01:43:00,
2013-09-17 18:48:00,61.2,51.6,29.41,SE,135,12.0,12.0,71,0.00,,,0.00,meteohub,2013-09-18 01:48:00,
2013-09-17 18:53:00,60.8,52.2,29.41,SW,225,7.0,12.0,73,0.00,,,0.00,meteohub,2013-09-18 01:53:00,
2013-09-17 18:58:00,60.4,51.8,29.41,SSW,203,6.0,12.0,73,0.00,,,0.00,meteohub,2013-09-18 01:58:00,
2013-09-17 19:03:00,60.3,52.0,29.41,South,180,7.0,12.0,74,0.00,,,0.00,meteohub,2013-09-18 02:03:00,
2013-09-17 19:08:00,60.3,52.3,29.42,SW,225,6.0,9.0,75,0.00,,,0.00,meteohub,2013-09-18 02:08:00,
2013-09-17 19:13:00,60.1,52.5,29.42,SW,225,4.0,9.0,76,0.00,,,0.00,meteohub,2013-09-18 02:13:00,
2013-09-17 19:18:00,59.7,52.2,29.41,South,180,4.0,9.0,76,0.00,,,0.00,meteohub,2013-09-18 02:18:00,
2013-09-17 19:23:00,59.7,52.5,29.42,SE,135,8.0,8.0,77,0.00,,,0.00,meteohub,2013-09-18 02:23:00,
2013-09-17 19:29:00,59.5,52.3,29.41,SW,225,8.0,8.0,77,0.00,,,0.00,meteohub,2013-09-18 02:29:00,
2013-09-17 19:34:00,59.4,52.2,29.41,South,180,11.0,17.0,77,0.00,,,0.00,meteohub,2013-09-18 02:34:00,
2013-09-17 19:39:00,59.2,52.3,29.42,South,180,5.0,17.0,78,0.00,,,0.00,meteohub,2013-09-18 02:39:00,
2013-09-17 19:44:00,59.2,52.3,29.42,South,180,6.0,17.0,78,0.00,,,0.00,meteohub,2013-09-18 02:44:00,
2013-09-17 19:49:00,59.0,52.5,29.42,South,180,4.0,12.0,79,0.00,,,0.00,meteohub,2013-09-18 02:49:00,
2013-09-17 19:54:00,58.8,52.7,29.42,SW,225,9.0,11.0,80,0.00,,,0.00,meteohub,2013-09-18 02:54:00,
2013-09-17 19:59:00,58.6,52.5,29.42,South,180,6.0,11.0,80,0.00,,,0.00,meteohub,2013-09-18 02:59:00,
2013-09-17 20:04:00,58.6,52.9,29.42,SW,225,6.0,11.0,81,0.00,,,0.00,meteohub,2013-09-18 03:04:00,
2013-09-17 20:09:00,58.6,52.9,29.43,South,180,7.0,9.0,81,0.00,,,0.00,meteohub,2013-09-18 03:09:00,
2013-09-17 20:14:00,58.5,52.7,29.43,SW,225,8.0,8.0,81,0.00,,,0.00,meteohub,2013-09-18 03:14:00,
2013-09-17 20:19:00,58.5,53.1,29.44,South,180,7.0,8.0,82,0.00,,,0.00,meteohub,2013-09-18 03:19:00,
2013-09-17 20:24:00,58.3,52.9,29.44,South,180,4.0,11.0,82,0.00,,,0.00,meteohub,2013-09-18 03:24:00,
2013-09-17 20:29:00,58.3,53.1,29.44,SW,225,6.0,11.0,83,0.00,,,0.00,meteohub,2013-09-18 03:29:00,
2013-09-17 20:35:00,58.3,53.1,29.44,South,180,6.0,9.0,83,0.00,,,0.00,meteohub,2013-09-18 03:35:00,
2013-09-17 20:40:00,58.1,52.9,29.45,South,180,2.0,7.0,83,0.00,,,0.00,meteohub,2013-09-18 03:40:00,
2013-09-17 20:45:00,57.9,53.1,29.45,South,180,4.0,7.0,84,0.00,,,0.00,meteohub,2013-09-18 03:45:00,
2013-09-17 20:50:00,57.7,52.9,29.45,SW,225,8.0,8.0,84,0.00,,,0.00,meteohub,2013-09-18 03:50:00,
2013-09-17 20:55:00,57.6,53.1,29.45,SW,225,2.0,5.0,85,0.00,,,0.00,meteohub,2013-09-18 03:55:00,
2013-09-17 21:00:00,57.4,53.2,29.45,SW,225,2.0,8.0,86,0.00,,,0.00,meteohub,2013-09-18 04:00:00,
2013-09-17 21:01:00,57.4,53.2,29.46,SW,225,6.0,8.0,86,0.00,,,0.00,meteohub,2013-09-18 04:01:00,
2013-09-17 21:02:00,57.4,53.6,29.46,SW,225,6.0,8.0,87,0.00,,,0.00,meteohub,2013-09-18 04:02:00,
2013-09-17 21:03:00,57.4,53.2,29.45,SW,225,4.0,8.0,86,0.00,,,0.00,meteohub,2013-09-18 04:03:00,
2013-09-17 21:04:00,57.4,53.2,29.45,South,180,2.0,8.0,86,0.00,,,0.00,meteohub,2013-09-18 04:04:00,
2013-09-17 21:09:00,57.0,52.9,29.46,South,180,0.0,8.0,86,0.00,,,0.00,meteohub,2013-09-18 04:09:00,
2013-09-17 21:14:00,56.8,53.2,29.46,SW,225,7.0,7.0,88,0.00,,,0.00,meteohub,2013-09-18 04:14:00,
2013-09-17 21:19:00,56.8,53.2,29.46,SW,225,4.0,6.0,88,0.00,,,0.00,meteohub,2013-09-18 04:19:00,
2013-09-17 21:24:00,56.8,53.2,29.46,SW,225,4.0,7.0,88,0.00,,,0.00,meteohub,2013-09-18 04:24:00,
2013-09-17 21:29:00,57.0,53.4,29.46,SW,225,5.0,7.0,88,0.00,,,0.00,meteohub,2013-09-18 04:29:00,
2013-09-17 21:34:00,57.2,53.6,29.46,SW,225,4.0,7.0,88,0.00,,,0.00,meteohub,2013-09-18 04:34:00,
2013-09-17 21:39:00,57.0,53.4,29.47,SW,225,7.0,7.0,88,0.00,,,0.00,meteohub,2013-09-18 04:39:00,
2013-09-17 21:45:00,57.0,53.4,29.47,SSW,203,4.0,7.0,88,0.00,,,0.00,meteohub,2013-09-18 04:45:00,
2013-09-17 21:50:00,56.8,53.2,29.47,SW,225,5.0,7.0,88,0.00,,,0.00,meteohub,2013-09-18 04:50:00,
2013-09-17 21:55:00,56.8,53.6,29.47,SW,225,6.0,7.0,89,0.00,,,0.00,meteohub,2013-09-18 04:55:00,
2013-09-17 22:00:00,56.8,53.6,29.47,SW,225,6.0,7.0,89,0.00,,,0.00,meteohub,2013-09-18 05:00:00,
2013-09-17 22:05:00,57.0,53.8,29.47,SW,225,5.0,6.0,89,0.00,,,0.00,meteohub,2013-09-18 05:05:00,
2013-09-17 22:10:00,57.2,54.0,29.47,SW,225,2.0,6.0,89,0.00,,,0.00,meteohub,2013-09-18 05:10:00,
2013-09-17 22:15:00,57.0,53.8,29.47,SW,225,4.0,6.0,89,0.00,,,0.00,meteohub,2013-09-18 05:15:00,
2013-09-17 22:20:00,56.8,54.0,29.47,SW,225,5.0,6.0,90,0.00,,,0.00,meteohub,2013-09-18 05:20:00,
2013-09-17 22:25:00,56.8,54.0,29.47,SW,225,4.0,7.0,90,0.00,,,0.00,meteohub,2013-09-18 05:25:00,
2013-09-17 22:30:00,56.8,54.0,29.47,SW,225,7.0,7.0,90,0.00,,,0.00,meteohub,2013-09-18 05:30:00,
2013-09-17 22:32:00,56.8,54.0,29.47,SW,225,5.0,7.0,90,0.00,,,0.00,meteohub,2013-09-18 05:32:00,
2013-09-17 22:37:00,56.8,54.0,29.47,SW,225,5.0,7.0,90,0.00,,,0.00,meteohub,2013-09-18 05:37:00,
2013-09-17 22:42:00,56.7,53.8,29.47,SW,225,4.0,7.0,90,0.00,,,0.00,meteohub,2013-09-18 05:42:00,
2013-09-17 22:47:00,56.7,53.8,29.47,SW,225,4.0,7.0,90,0.00,,,0.00,meteohub,2013-09-18 05:47:00,
2013-09-17 22:52:00,56.5,54.0,29.47,SW,225,4.0,6.0,91,0.00,,,0.00,meteohub,2013-09-18 05:52:00,
2013-09-17 22:57:00,56.5,54.0,29.47,SW,225,4.0,6.0,91,0.00,,,0.00,meteohub,2013-09-18 05:57:00,
2013-09-17 23:02:00,56.3,53.8,29.47,SSW,203,4.0,6.0,91,0.00,,,0.00,meteohub,2013-09-18 06:02:00,
2013-09-17 23:07:00,56.3,53.8,29.48,SW,225,5.0,7.0,91,0.00,,,0.00,meteohub,2013-09-18 06:07:00,
2013-09-17 23:12:00,56.5,54.0,29.48,South,180,3.0,7.0,91,0.00,,,0.00,meteohub,2013-09-18 06:12:00,
2013-09-17 23:17:00,56.7,54.1,29.48,SW,225,4.0,7.0,91,0.00,,,0.00,meteohub,2013-09-18 06:17:00,
2013-09-17 23:22:00,56.8,54.0,29.48,SW,225,5.0,6.0,90,0.00,,,0.00,meteohub,2013-09-18 06:22:00,
2013-09-17 23:27:00,56.8,53.6,29.48,SW,225,4.0,8.0,89,0.00,,,0.00,meteohub,2013-09-18 06:27:00,
2013-09-17 23:32:00,56.8,54.0,29.48,SW,225,4.0,8.0,90,0.00,,,0.00,meteohub,2013-09-18 06:32:00,
2013-09-17 23:37:00,56.7,53.4,29.48,SW,225,2.0,8.0,89,0.00,,,0.00,meteohub,2013-09-18 06:37:00,
2013-09-17 23:42:00,56.7,53.8,29.48,SW,225,3.0,4.0,90,0.00,,,0.00,meteohub,2013-09-18 06:42:00,
2013-09-17 23:47:00,56.7,53.8,29.48,South,180,3.0,4.0,90,0.00,,,0.00,meteohub,2013-09-18 06:47:00,
2013-09-17 23:52:00,56.7,53.8,29.48,SW,225,2.0,4.0,90,0.00,,,0.00,meteohub,2013-09-18 06:52:00,
2013-09-17 23:57:00,56.5,53.6,29.48,SW,225,2.0,4.0,90,0.00,,,0.00,meteohub,2013-09-18 06:57:00,